ARIANE 5 R/B, 54745

Orbit data source: Space-Track

ARIANE 5 R/B, 54745 is space debris in HEO originally from a launch on Tue, 13 Dec 2022 UTC launched from the French Guiana (FRGUI). Debris objects in space refer to the collection of defunct objects orbiting the Earth. Examples of debris include non-operational satellites, rocket bodies, and fragments generated from explosions, collisions, or faulty payload assembly.

Loading next visibility...
Identifier
54745, 2022-170E
Orbit
HEO
Last TLE update
18 hours ago
Origin
Manufacturer
ArianeGroup
Mission
Spacecraft
Bus & Motor
ESC-A, Unknown motor
Mass
~5,000 kg wet, ~5,000 kg dry
Launch date (UTC)
2022-12-13 (3 years ago)
Launch vehicle
Unknown
Launch site
French Guiana (FRGUI)
Object type
Payload
Rocket body
Debris
Shape & HBR
Cyl + 1 Nozzle, 7 m
Radar Cross Section
41.627 m², Large (>1 m²)

Expand to show TLE details & history

TLE from 18 hours ago
0 ARIANE 5 R/B
1 54745U 22170E   25181.32561153  .00072213 -68996-7  16930-2 0  9992
2 54745   5.8562 144.3126 6955958 315.1756   6.2559  2.75175239 23079
Epoch: 2025-06-30T07:48Z
TLE epoch observation values (Epoch: 2025-06-30T07:48:52.836Z)
Latitude
-0.00011°
Longitude
108.33856°
Altitude
1,034.1 km
Speed
9.434 km/s
True Right ascension
09h 36m 46s
True Declination
0° 00' 00"
Sunlit
Object was in daylight at epoch
Visualization orbit readout
Latitude
5.81577°
Longitude
-170.11031°
Altitude
12,347.901 km
Speed
4.902 km/s
Apparent Right ascension
15h 30m 40s
Apparent Declination
-8° 45' 18"
Sunlit
Object is in daylight
Visualization observer readout
Local Sidereal Time
13:41:32
Azimuth
146.342° SSE
Elevation
35.174°
Doppler factor
1
Orbital elements
Apogee altitude
30,105.205 km
Perigee altitude
171.586 km
Semi-major axis
21,516.532 km
Eccentricity
0.6956
Inclination
5.8562°
RAAN
144.3126°
Arg. of periapsis
315.1756°
True anomaly
Unknown
Mean anomaly
6.2559°
Eccentric anomaly
Unknown
Mean motion
0.68768 °/min
Orbital period
523.5 mins
BSTAR
0.001693
Loading maneuver chart data...
Loading SW <> Apogee altitude chart data...
Loading historical data...
Loading historical data...
Loading historical data...
Loading historical data...
Loading historical data...
Loading historical data...
Loading historical data...
Other satellites on launch #170 in the year 2022 (2022-12-13 UTC)

ARIANE 5 R/B Visibility forecast

Observer location: undefined°, undefined°

Span
Click to sort rows by Start time (UTC) header in descending order
Start Az.
Max El. time (UTC)
Max El. Az.
Max El.
End time (UTC)
End Az.
425 mins2025-07-01 02:04:28.412Z146.371° SSE2025-07-01 06:30:28.412Z149.825° SSE33.546°2025-07-01 09:09:28.412Z131.808° SE
|